Temperature
19 19 19 18 18 18 18 18 18 18 18 18 18 18 18 18 18 18 18 18 18 17 17 17 17 17 17 17 17 17 17 17 17 17 17 17 16 16 16 16 16 16 16
19 19 19 19 19 18 18 18 18 18 18 18 18 18 18 18 18 18 18 18 18 17 17 17 17 17 17 17 17 17 17 17 17 17 17 16 16 16 16 16 16 16 16
19 19 19 19 19 18 18 18 18 18 18 18 18 18 18 18 18 18 18 18 18 17 17 17 17 17 17 17 17 17 17 17 17 17 16 16 16 16 16 16 16 16 16
19 19 19 19 19 19 18 18 18 18 18 18 18 18 18 18 18 18 18 17 17 17 17 17 17 17 17 17 17 17 17 17 17 17 16 16 16 16 16 16 16 16 16
19 19 19 18 18 18 18 18 18 18 18 18 18 18 18 18 18 18 18 17 17 17 17 17 17 17 17 17 17 17 17 17 17 17 16 16 16 16 16 16 16 16 16
19 19 18 18 18 18 18 18 18 18 18 18 18 18 18 18 18 18 18 18 17 17 17 17 17 17 17 17 17 17 17 16 16 16 16 16 16 16 16 16 16 16 15
18 18 18 18 18 18 18 18 18 18 18 18 18 18 18 18 18 18 18 18 18 17 17 17 17 17 17 17 17 17 17 16 16 16 16 16 16 16 16 16 16 15 15
18 18 18 18 18 18 18 18 18 18 18 18 18 18 18 18 18 18 18 18 18 18 17 17 17 17 17 17 17 17 17 17 17 16 16 16 16 16 16 16 15 15 15
18 19 18 18 18 18 18 18 18 18 18 18 18 18 18 18 18 18 18 18 18 18 17 17 17 17 17 17 17 17 17 17 17 16 16 16 16 16 16 16 15 15 15
18 18 18 18 18 18 18 18 18 18 18 18 19 19 19 19 18 18 18 18 18 17 17 17 17 17 17 17 17 17 17 16 16 16 16 16 16 16 16 15 15 15 15
18 18 18 18 18 18 18 18 18 18 18 18 18 19 19 19 19 18 18 18 18 18 17 17 17 17 17 17 17 16 16 16 16 16 16 16 16 16 15 15 15 15 15
19 18 18 18 18 18 18 18 18 18 18 18 18 18 18 18 18 18 18 18 18 18 17 17 17 17 17 16 16 16 16 16 16 16 16 16 16 16 15 15 15 15 15
19 18 18 18 18 18 18 18 18 18 18 18 18 18 18 18 18 18 18 18 18 17 17 17 17 17 17 16 16 16 16 16 16 16 16 16 16 16 16 15 15 15 15
19 18 18 18 18 18 18 18 18 18 18 18 18 18 18 18 18 18 18 18 18 17 17 17 17 17 17 17 16 16 16 16 16 16 16 16 16 16 16 15 15 15 15
19 19 18 18 18 18 18 18 18 18 18 18 18 18 18 18 18 18 18 18 18 17 17 17 17 17 17 16 16 16 16 16 16 16 16 16 16 16 15 15 15 15 15
19 19 18 18 18 18 18 18 18 18 18 18 18 18 18 18 18 18 18 18 18 18 17 17 17 17 17 16 16 16 16 16 16 16 16 16 16 15 15 15 15 15 15
19 18 18 18 18 18 18 18 18 18 18 17 17 17 17 18 17 17 17 17 18 18 17 17 17 17 17 16 16 16 16 16 16 16 16 16 16 15 15 15 15 15 15
18 18 18 18 18 18 18 18 17 17 17 17 17 17 17 17 17 17 17 17 17 17 17 17 17 17 17 16 16 16 16 16 16 16 16 16 16 15 15 15 15 15 14
18 18 18 18 18 18 18 18 17 17 17 17 17 17 17 17 17 17 17 17 17 17 17 17 16 16 16 16 16 16 16 16 16 16 16 16 16 15 15 15 15 15 14
18 18 18 18 18 18 18 18 17 17 17 17 17 17 17 17 17 17 16 16 17 17 17 17 16 16 16 16 16 16 16 16 16 16 16 16 16 15 15 15 15 14 14
18 18 18 18 18 17 17 17 17 17 17 17 17 17 17 17 17 17 16 16 16 17 17 16 16 16 16 16 16 16 16 16 16 16 16 16 15 15 15 15 15 14 14
18 18 18 18 17 17 17 17 17 17 17 17 17 17 17 17 17 17 16 16 16 16 16 16 16 16 16 16 16 16 15 15 15 15 15 15 15 15 15 15 15 14 14
18 18 18 17 17 18 17 17 17 17 17 17 17 17 16 16 16 16 16 16 16 16 16 16 16 16 16 16 16 15 15 15 15 15 15 15 15 15 15 15 15 14 14
17 17 17 17 17 18 18 17 17 17 17 17 17 17 16 17 16 16 16 16 16 16 16 16 16 16 16 15 15 15 15 15 15 15 15 15 15 15 15 14 14 14 14
17 17 17 17 17 17 17 17 17 17 16 16 16 16 17 16 16 16 16 16 16 16 16 16 16 16 16 15 15 15 15 15 15 15 15 15 15 14 14 14 14 14 14
17 17 17 17 17 17 17 17 17 17 16 16 16 16 16 16 16 16 16 16 16 16 16 16 16 15 15 15 15 15 15 14 14 14 14 14 14 14 14 14 14 14 13
Wind_Speed
2 2 2 2 1 3 3 2 2 2 2 1 1 1 2 3 6 8 9 12 12 11 10 9 9 8 8 9 10 10 9 8 8 8 8 8 7 7 7 7 7 6 6
2 2 2 1 1 1 3 2 2 2 2 1 1 2 3 4 5 7 9 10 11 11 10 9 9 9 8 9 10 10 9 8 7 8 8 8 7 8 7 8 7 7 7
1 1 2 1 1 2 2 2 2 2 3 2 2 2 3 3 3 5 7 8 9 10 10 9 8 8 8 8 9 9 9 9 8 7 7 7 7 7 7 7 7 7 7
1 1 1 1 1 1 1 2 2 2 2 2 2 2 2 2 3 3 5 6 8 8 9 9 9 8 8 9 9 9 10 9 9 8 7 7 7 7 7 7 7 7 7
2 1 1 2 1 1 1 2 3 2 2 1 2 3 2 2 2 3 4 5 7 8 8 9 10 9 9 9 9 9 9 10 9 8 8 7 7 7 7 7 7 7 7
2 1 1 2 1 1 2 2 2 1 1 0 1 2 2 2 2 2 2 4 6 7 8 9 10 9 9 8 8 8 8 8 9 9 8 7 7 7 8 7 7 7 7
3 2 1 2 1 1 2 1 1 1 1 1 2 1 1 2 2 2 2 2 4 5 7 8 9 9 9 9 9 9 8 8 8 8 8 8 7 7 8 8 7 7 7
2 3 1 1 1 1 1 1 1 0 1 1 1 1 1 0 0 2 3 3 3 4 4 6 7 8 10 9 8 9 8 7 7 8 7 7 6 6 7 8 8 8 7
2 2 2 1 0 1 2 1 1 1 1 1 1 1 1 1 0 1 2 2 3 3 3 4 6 7 9 9 9 9 9 8 7 8 8 7 7 6 6 7 7 7 7
2 2 2 1 0 1 1 1 1 1 1 1 1 1 0 2 1 1 1 2 3 2 2 3 4 6 7 8 9 9 9 8 7 8 8 8 7 7 7 7 6 7 7
3 2 2 1 1 1 1 0 1 1 1 1 1 1 0 1 2 2 2 2 2 2 2 2 3 5 8 9 8 8 9 9 8 7 7 7 7 7 6 6 6 6 6
2 2 3 2 2 1 1 1 1 1 1 1 2 2 1 1 1 1 2 2 2 2 2 2 3 4 6 7 8 9 10 9 9 8 8 7 7 6 6 6 6 6 5
2 2 2 2 2 2 2 2 2 1 1 1 1 2 2 1 0 1 1 2 2 2 2 2 2 4 5 8 8 10 10 11 10 9 9 8 8 7 7 6 6 6 5
3 3 3 2 2 1 1 1 1 2 2 2 1 1 2 1 1 0 1 1 2 1 2 2 2 3 4 7 9 11 9 11 11 10 10 9 9 8 8 7 6 6 5
3 3 3 2 1 0 0 0 1 1 0 0 1 1 1 1 1 1 0 0 1 2 2 2 2 2 4 7 9 8 8 10 12 11 11 10 10 9 9 8 8 7 6
2 3 2 2 2 1 1 1 1 1 1 1 1 0 1 1 1 1 1 1 1 1 1 2 2 3 3 5 9 8 8 11 12 13 13 12 11 10 10 10 9 8 7
3 3 3 2 2 2 1 1 1 1 2 1 1 1 0 1 1 2 2 1 1 0 1 1 1 2 2 3 5 6 7 9 10 14 15 14 14 13 12 11 10 9 8
3 4 3 3 3 2 1 1 2 1 1 1 1 0 1 1 1 2 2 2 1 1 1 2 2 2 2 3 4 4 5 7 8 13 16 16 15 15 13 12 11 10 9
3 3 3 3 2 2 1 1 1 1 1 1 1 1 1 1 1 1 2 1 2 2 1 2 3 2 2 2 3 3 3 3 5 9 14 15 15 15 14 13 12 10 9
3 3 3 3 3 2 2 2 2 2 1 1 1 1 1 1 1 2 2 2 2 2 2 2 2 2 2 2 2 2 2 2 3 3 6 9 12 13 13 12 11 11 10
4 4 3 3 3 3 3 3 3 3 2 2 1 1 1 1 1 1 1 1 2 2 2 2 2 2 2 2 2 2 2 2 2 2 2 3 6 6 9 11 12 11 12
3 4 4 4 4 3 2 2 1 2 1 2 2 2 2 3 3 3 2 1 1 2 2 2 2 1 2 2 2 2 2 1 1 1 1 2 3 4 6 8 12 14 13
4 4 4 3 3 2 3 3 2 2 2 2 3 3 4 3 3 3 3 4 3 4 4 4 3 3 2 2 2 2 2 3 3 2 2 3 2 2 4 7 13 15 14
4 4 4 4 3 3 4 3 3 3 3 4 4 4 3 2 2 2 3 3 3 3 4 4 3 4 3 2 2 3 4 4 3 3 2 3 2 2 2 4 12 14 15
3 4 4 4 4 3 4 4 3 3 4 4 5 4 3 3 2 2 3 4 3 3 4 4 5 5 4 4 3 2 3 3 3 3 3 2 2 2 2 2 7 13 14
4 4 4 5 4 4 5 6 5 4 4 4 4 3 4 3 4 3 4 4 5 5 3 3 4 5 6 6 7 5 4 4 3 3 2 2 2 1 2 2 3 7 9
Wind_Direction
120 123 127 130 144 147 143 142 157 146 122 117 151 118 125 108 118 126 139 155 159 160 162 166 172 174 175 176 173 174 180 181 180 181 183 184 187 192 199 204 209 203 199
90 119 120 108 111 132 133 134 138 124 124 112 108 94 80 93 115 131 141 156 162 164 167 169 173 176 178 174 173 177 182 187 187 188 190 193 194 195 200 206 208 206 205
98 100 110 132 135 141 131 132 117 127 137 137 128 110 93 92 119 134 144 151 160 169 172 170 174 179 178 178 174 176 178 181 182 183 188 188 190 192 195 197 200 203 205
110 82 107 119 117 142 142 141 135 130 117 124 123 117 109 116 131 136 147 151 157 162 172 177 179 181 181 179 182 183 184 184 185 186 189 192 194 197 201 206 206 206 207
96 76 66 75 106 86 69 99 101 112 120 133 136 135 147 155 146 147 144 149 153 150 157 173 179 179 180 185 187 187 186 187 186 187 190 191 195 199 205 208 208 211 213
110 90 103 87 78 75 64 62 79 96 117 157 132 125 147 153 158 153 154 140 146 155 163 170 172 176 179 182 185 189 189 189 190 188 190 194 198 203 204 206 206 210 212
120 117 86 111 116 99 99 93 92 132 145 157 111 110 130 158 159 151 156 155 149 152 158 162 165 165 166 176 180 184 186 190 195 194 197 198 202 205 208 207 206 210 211
129 135 122 132 130 127 110 112 120 146 211 153 151 168 146 123 166 164 162 160 155 144 146 150 159 163 161 161 170 178 183 185 185 190 190 191 193 199 205 206 208 208 207
132 108 114 102 41 112 126 149 156 215 252 220 181 188 168 157 171 153 163 153 142 140 149 148 152 151 158 158 164 174 181 182 187 190 190 190 192 192 195 201 208 211 212
144 136 137 130 106 69 126 203 152 273 258 248 255 265 124 128 153 154 167 149 155 155 166 168 142 140 147 146 149 157 170 178 185 189 193 196 196 196 197 202 208 213 212
159 157 157 147 142 177 151 102 46 321 295 300 300 301 297 194 198 186 177 164 168 168 171 173 143 141 148 152 151 161 169 174 177 183 190 194 198 201 203 206 208 208 206
149 146 156 158 176 182 180 201 231 256 271 309 308 300 283 235 174 175 173 173 172 176 165 161 150 144 149 149 162 163 168 172 174 179 184 187 190 195 200 202 201 203 204
143 154 159 171 190 185 202 211 210 229 269 279 290 295 302 322 63 186 159 173 179 178 162 159 158 143 150 141 151 162 169 172 176 183 187 190 191 194 198 200 204 204 203
153 149 157 172 182 201 221 211 211 207 224 248 272 308 320 342 337 80 192 176 192 175 160 172 164 149 140 145 161 167 174 182 185 188 193 195 195 196 197 198 198 198 199
148 148 160 164 166 162 269 202 167 237 211 242 253 290 307 319 328 307 308 163 205 209 197 190 170 157 138 138 162 175 175 190 194 195 198 199 199 198 198 198 199 202 205
126 138 143 156 149 144 185 161 173 184 170 212 215 37 313 321 328 340 321 289 277 222 200 180 177 153 152 163 172 183 187 189 196 197 200 200 202 204 205 205 205 206 208
149 154 156 169 162 171 177 179 185 199 194 206 223 158 221 327 327 311 303 300 322 317 182 168 158 153 155 150 166 191 189 185 197 206 205 206 206 207 209 210 211 211 212
166 164 170 179 186 175 188 198 213 218 206 186 224 202 248 246 304 312 303 311 295 273 177 192 184 171 186 173 177 207 207 204 199 205 205 209 209 208 209 211 212 212 212
172 174 173 181 192 181 182 219 218 207 223 188 216 212 212 213 243 282 288 289 280 260 220 211 208 191 190 194 187 220 231 229 220 195 201 208 209 207 208 210 210 209 211
176 177 185 192 201 199 197 222 233 204 211 210 219 211 205 211 226 258 254 269 271 272 243 237 219 203 201 199 188 220 236 238 243 206 197 205 207 207 208 207 205 207 209
178 174 188 195 210 213 220 221 229 208 197 209 219 213 200 151 124 248 258 266 266 260 250 240 236 217 213 196 214 237 237 233 222 217 185 204 189 196 202 209 208 208 205
175 179 195 205 215 220 151 143 215 238 197 206 218 212 204 199 198 195 199 207 253 244 253 259 259 240 228 216 221 247 251 257 258 220 215 239 179 192 198 195 199 199 200
183 192 202 205 207 189 163 165 195 220 215 211 216 232 247 232 200 207 213 219 233 237 231 242 253 262 257 255 250 265 270 259 254 244 231 250 217 210 198 195 192 194 195
194 204 214 222 217 211 186 182 208 228 232 225 221 229 237 241 245 228 245 235 231 246 239 231 239 254 250 252 245 250 262 262 253 242 216 240 236 236 229 186 189 188 192
211 212 215 225 228 222 200 195 204 240 238 237 233 234 227 216 221 220 246 257 250 252 247 229 220 229 229 237 240 261 263 257 262 244 218 221 237 241 232 194 196 195 194
220 228 224 220 220 217 205 207 203 243 243 245 239 226 222 215 216 226 232 244 248 247 249 248 239 239 231 231 226 222 237 252 266 256 235 225 231 220 254 226 185 191 201
Height
1526 1527 1527 1528 1528 1529 1530 1531 1532 1533 1533 1534 1535 1535 1536 1537 1537 1537 1538 1539 1539 1540 1541 1542 1543 1544 1545 1547 1548 1550 1551 1552 1553 1555 1556 1557 1558 1559 1560 1562 1563 1564 1565
1527 1527 1528 1528 1529 1530 1531 1531 1532 1533 1533 1534 1535 1535 1536 1537 1537 1538 1538 1539 1539 1540 1541 1542 1543 1544 1545 1546 1547 1549 1550 1551 1552 1554 1555 1556 1557 1558 1559 1560 1561 1562 1563
1527 1528 1528 1529 1530 1530 1531 1532 1532 1533 1534 1534 1535 1536 1536 1537 1537 1538 1538 1539 1539 1540 1541 1542 1542 1543 1544 1545 1546 1547 1549 1550 1551 1553 1554 1555 1556 1557 1557 1558 1559 1560 1561
1528 1528 1528 1529 1530 1530 1531 1532 1532 1533 1534 1534 1535 1536 1536 1537 1537 1538 1539 1538 1539 1539 1540 1541 1542 1543 1544 1544 1545 1546 1548 1549 1550 1551 1553 1553 1554 1555 1556 1556 1557 1558 1559
1527 1528 1529 1529 1530 1531 1531 1532 1533 1533 1534 1535 1535 1536 1536 1537 1537 1538 1539 1539 1539 1540 1540 1541 1541 1542 1543 1543 1544 1545 1546 1548 1549 1550 1551 1552 1553 1553 1554 1555 1555 1556 1557
1527 1528 1528 1529 1530 1531 1532 1532 1532 1533 1534 1535 1536 1536 1536 1537 1538 1538 1539 1540 1540 1540 1540 1540 1541 1541 1542 1543 1543 1544 1546 1547 1548 1549 1550 1550 1551 1552 1553 1553 1554 1554 1555
1527 1528 1528 1529 1530 1531 1531 1532 1532 1533 1534 1535 1536 1536 1537 1538 1538 1538 1539 1539 1540 1540 1540 1540 1540 1541 1541 1542 1543 1544 1545 1546 1546 1547 1548 1549 1550 1550 1551 1551 1552 1552 1553
1527 1528 1528 1529 1530 1531 1531 1532 1533 1533 1534 1535 1536 1536 1537 1539 1538 1539 1539 1539 1540 1540 1539 1540 1540 1540 1541 1541 1542 1543 1544 1544 1545 1546 1547 1547 1548 1548 1549 1549 1550 1550 1551
1527 1528 1528 1529 1530 1530 1531 1532 1533 1533 1534 1535 1535 1536 1537 1537 1538 1539 1539 1539 1539 1540 1540 1539 1539 1540 1540 1540 1541 1542 1542 1543 1544 1545 1545 1546 1546 1547 1547 1547 1548 1548 1548
1527 1528 1528 1529 1529 1530 1531 1531 1532 1533 1534 1534 1535 1535 1536 1536 1537 1538 1539 1538 1538 1539 1539 1539 1539 1539 1539 1540 1540 1540 1541 1542 1542 1543 1544 1544 1545 1545 1545 1546 1546 1546 1546
1527 1527 1528 1529 1529 1530 1530 1531 1531 1532 1533 1534 1534 1535 1535 1536 1536 1536 1537 1538 1538 1538 1538 1538 1538 1538 1538 1539 1539 1539 1540 1540 1541 1541 1542 1542 1543 1543 1543 1544 1544 1544 1544
1526 1527 1528 1528 1528 1529 1530 1530 1531 1531 1532 1533 1533 1534 1534 1535 1535 1535 1535 1536 1537 1537 1538 1538 1537 1537 1537 1537 1537 1538 1538 1539 1539 1540 1540 1541 1541 1541 1541 1542 1542 1542 1542
1526 1526 1527 1527 1527 1528 1529 1529 1530 1530 1531 1532 1532 1533 1534 1534 1534 1534 1534 1535 1535 1536 1537 1537 1537 1536 1536 1536 1536 1536 1537 1537 1538 1538 1538 1539 1539 1539 1539 1540 1540 1540 1540
1525 1525 1526 1526 1527 1527 1528 1529 1529 1530 1530 1531 1531 1532 1533 1533 1533 1534 1534 1534 1534 1535 1535 1535 1535 1536 1535 1535 1535 1535 1535 1535 1536 1536 1536 1537 1537 1537 1537 1537 1538 1538 1538
1525 1525 1525 1525 1526 1526 1527 1528 1528 1528 1529 1530 1530 1531 1531 1532 1532 1533 1533 1533 1533 1533 1533 1533 1534 1534 1534 1534 1533 1534 1534 1534 1534 1534 1535 1535 1535 1535 1535 1535 1535 1535 1536
1523 1523 1524 1524 1525 1525 1526 1526 1527 1527 1528 1528 1529 1529 1530 1530 1531 1531 1531 1531 1532 1532 1531 1532 1532 1532 1532 1532 1532 1532 1532 1532 1532 1533 1533 1533 1533 1533 1533 1533 1533 1533 1533
1522 1522 1522 1523 1523 1524 1524 1525 1525 1526 1526 1527 1527 1528 1528 1529 1529 1529 1530 1530 1530 1530 1530 1530 1530 1530 1531 1531 1530 1530 1530 1530 1530 1530 1531 1531 1531 1531 1530 1531 1531 1531 1531
1520 1520 1521 1522 1522 1523 1523 1524 1524 1525 1525 1525 1526 1526 1526 1527 1527 1528 1528 1528 1528 1528 1529 1528 1529 1529 1529 1529 1528 1528 1528 1528 1528 1528 1528 1528 1528 1528 1528 1528 1528 1528 1528
1518 1519 1520 1520 1521 1521 1522 1522 1523 1523 1524 1524 1524 1525 1525 1525 1525 1525 1526 1526 1526 1527 1527 1527 1527 1527 1527 1527 1526 1526 1526 1526 1526 1525 1525 1526 1525 1525 1525 1525 1525 1525 1525
1517 1517 1518 1519 1520 1520 1521 1521 1521 1522 1522 1522 1522 1522 1523 1523 1523 1523 1524 1524 1524 1524 1524 1525 1525 1525 1525 1524 1524 1524 1524 1524 1524 1523 1523 1523 1523 1523 1522 1522 1522 1522 1522
1516 1516 1516 1518 1518 1519 1520 1520 1520 1520 1520 1520 1520 1521 1521 1521 1521 1521 1521 1521 1522 1522 1522 1522 1522 1522 1522 1522 1522 1522 1521 1521 1521 1521 1521 1520 1520 1519 1519 1519 1519 1519 1519
1514 1515 1515 1516 1516 1517 1518 1518 1518 1518 1518 1518 1518 1518 1519 1518 1518 1518 1518 1519 1519 1519 1519 1519 1519 1519 1519 1519 1519 1519 1519 1519 1518 1519 1519 1518 1517 1516 1516 1516 1516 1516 1516
1512 1513 1513 1513 1514 1515 1515 1516 1516 1516 1516 1516 1516 1516 1516 1516 1516 1516 1515 1516 1516 1516 1516 1517 1516 1516 1516 1516 1516 1516 1516 1516 1516 1516 1516 1515 1515 1514 1513 1513 1513 1513 1513
1510 1510 1510 1511 1511 1512 1512 1513 1513 1513 1513 1513 1513 1513 1513 1513 1513 1513 1513 1512 1512 1512 1513 1513 1513 1513 1513 1513 1513 1513 1513 1513 1512 1512 1512 1512 1511 1510 1510 1509 1509 1509 1509
1507 1507 1508 1508 1509 1508 1509 1510 1510 1510 1510 1510 1510 1510 1510 1510 1510 1510 1510 1509 1509 1509 1509 1510 1510 1510 1510 1510 1510 1510 1509 1509 1508 1508 1508 1508 1507 1506 1506 1506 1506 1505 1505
1505 1505 1505 1506 1506 1506 1506 1506 1507 1507 1507 1507 1507 1507 1507 1507 1507 1507 1506 1506 1505 1505 1506 1506 1506 1506 1506 1506 1506 1506 1506 1505 1505 1504 1504 1504 1503 1503 1502 1502 1502 1502 1502